Weather History for Troy, MI

Change the Weather History Date:

Thursday, January 31, 2013

  Actual Average (KDET) Record (KDET)
Temperature  
Mean Temperature 28 °F -  
Max Temperature 36 °F 32 °F 60 °F (1989)
Min Temperature 20 °F 20 °F -3 °F (1971)
Degree Days  
Heating Degree Days 37    
Moisture  
Dew Point 16 °F    
Average Humidity 65    
Maximum Humidity 86    
Minimum Humidity 52    
Precipitation  
Precipitation 0.00 in - - ()
Sea Level Pressure  
Sea Level Pressure 29.63 in    
Wind  
Wind Speed 18 mph (West)    
Max Wind Speed 28 mph    
Max Gust Speed 39 mph    
Visibility 8 miles    
Events Snow    
Averages and records for this station are not official NWS values.
T = Trace of Precipitation, MM = Missing Value Source: NWS Daily Summary

Daily Weather History Graph

Daily Weather History Graph

Search for Another Location

Airport:

Trip Planner

Search our weather history database for the weather conditions in past years. The results will help you decide how hot, cold, wet, or windy it might be!

Date:

Astronomy

Jan. 31, 2013 Rise Set
Actual Time 7:47 AM EST 5:45 PM EST
Civil Twilight 7:17 AM EST 6:15 PM EST
Nautical Twilight 6:43 AM EST 6:49 PM EST
Astronomical Twilight 6:10 AM EST 7:22 PM EST
Moon 10:54 PM EST (1/31) 9:39 AM EST (1/31)
Length of Visible Light 10h 57m
Length of Day
9h 58m
Waning Gibbous, 80% of the Moon is Illuminated
Jan 31
Waning Gibbous
Feb 3
Last Quarter
Feb 10
New
Feb 17
First Quarter
Feb 25
Full

Hourly Weather History & Observations

Time (EST) Temp. Windchill Dew Point Humidity Pressure Visibility Wind Dir Wind Speed Gust Speed Precip Events Conditions
12:15 AM 36.5 °F 25.7 °F 30.6 °F 79% 29.24 in 10.0 mi West 20.7 mph 31.1 mph N/A   Mostly Cloudy
12:34 AM 35.8 °F 25.1 °F 30.0 °F 80% 29.25 in 7.0 mi West 19.6 mph 29.9 mph N/A   Mostly Cloudy
12:55 AM 35.1 °F 23.5 °F 25.7 °F 69% 29.28 in 10.0 mi West 21.9 mph 38.0 mph N/A   Overcast
1:14 AM 34.0 °F 23.0 °F 24.8 °F 69% 29.30 in 10.0 mi West 18.4 mph 36.8 mph N/A   Overcast
1:34 AM 33.1 °F 20.3 °F 23.0 °F 66% 29.31 in 10.0 mi West 24.2 mph 33.4 mph N/A   Overcast
1:55 AM 32.2 °F 19.1 °F 20.8 °F 63% 29.33 in 10.0 mi West 24.2 mph 34.5 mph N/A   Overcast
2:14 AM 31.8 °F 19.9 °F 17.6 °F 56% 29.35 in 10.0 mi West 19.6 mph 36.8 mph N/A   Mostly Cloudy
2:35 AM 31.8 °F 18.7 °F 17.4 °F 55% 29.36 in 10.0 mi West 24.2 mph 39.1 mph N/A   Mostly Cloudy
2:55 AM 31.1 °F 16.9 °F 17.1 °F 56% 29.38 in 10.0 mi West 27.6 mph 38.0 mph N/A   Overcast
3:14 AM 30.7 °F 18.1 °F 18.1 °F 60% 29.39 in 10.0 mi West 20.7 mph 31.1 mph N/A   Overcast
3:35 AM 30.7 °F 20.0 °F 18.5 °F 60% 29.40 in 10.0 mi West 15.0 mph 28.8 mph N/A   Overcast
3:54 AM 30.2 °F 16.2 °F 17.1 °F 58% 29.41 in 10.0 mi West 25.3 mph 36.8 mph N/A   Overcast
4:14 AM 30.0 °F 16.6 °F 16.5 °F 57% 29.42 in 10.0 mi West 23.0 mph 32.2 mph N/A   Overcast
4:35 AM 29.7 °F 15.5 °F 16.5 °F 58% 29.43 in 10.0 mi WNW 25.3 mph 36.8 mph N/A   Overcast
4:54 AM 29.3 °F 16.2 °F 16.2 °F 58% 29.44 in 10.0 mi West 20.7 mph 32.2 mph N/A   Overcast
5:15 AM 28.8 °F 17.0 °F 16.7 °F 61% 29.46 in 10.0 mi West 16.1 mph 36.8 mph N/A   Mostly Cloudy
5:34 AM 28.8 °F 14.6 °F 16.0 °F 59% 29.47 in 7.0 mi West 24.2 mph 31.1 mph N/A Snow Light Snow
5:55 AM 28.0 °F 14.6 °F 17.2 °F 64% 29.48 in 10.0 mi West 20.7 mph 31.1 mph N/A Snow Light Snow
6:14 AM 27.9 °F 14.7 °F 15.6 °F 60% 29.49 in 10.0 mi West 19.6 mph 29.9 mph N/A   Overcast
6:34 AM 27.5 °F 13.5 °F 16.5 °F 63% 29.51 in 10.0 mi West 21.9 mph 31.1 mph N/A Snow Light Snow
6:55 AM 27.9 °F 14.7 °F 14.4 °F 57% 29.52 in 10.0 mi West 19.6 mph 29.9 mph N/A   Overcast
7:14 AM 28.0 °F 15.3 °F 12.9 °F 53% 29.52 in 10.0 mi West 18.4 mph 34.5 mph N/A   Overcast
7:35 AM 27.1 °F 14.5 °F 14.9 °F 60% 29.54 in 10.0 mi West 17.3 mph 29.9 mph N/A   Overcast
7:54 AM 26.6 °F 12.7 °F 16.0 °F 64% 29.55 in 10.0 mi West 20.7 mph 31.1 mph N/A   Overcast
8:15 AM 26.2 °F 14.7 °F 18.3 °F 72% 29.57 in 5.0 mi West 13.8 mph 25.3 mph N/A Snow Light Snow
8:34 AM 26.1 °F 15.6 °F 18.5 °F 73% 29.58 in 2.0 mi West 11.5 mph 24.2 mph N/A Snow Light Snow
8:54 AM 26.4 °F 14.0 °F 17.6 °F 69% 29.59 in 10.0 mi West 16.1 mph 20.7 mph N/A   Overcast
9:14 AM 26.4 °F 12.8 °F 17.1 °F 68% 29.60 in 7.0 mi West 19.6 mph 26.5 mph N/A   Overcast
9:34 AM 26.4 °F 15.0 °F 18.3 °F 71% 29.61 in 4.0 mi West 13.8 mph 26.5 mph N/A Snow Light Snow
9:55 AM 25.7 °F 13.5 °F 19.9 °F 79% 29.62 in 2.5 mi West 15.0 mph 23.0 mph N/A Snow Light Snow
10:34 AM 25.9 °F 12.9 °F 19.4 °F 76% 29.63 in 7.0 mi West 17.3 mph 21.9 mph N/A   Overcast
10:54 AM 24.8 °F 9.3 °F 20.1 °F 82% 29.65 in 0.5 mi West 24.2 mph 29.9 mph N/A Snow Snow
11:15 AM 25.7 °F 14.0 °F 18.7 °F 75% 29.65 in 3.0 mi West 13.8 mph 24.2 mph N/A Snow Light Snow
11:34 AM 24.8 °F 14.0 °F 21.0 °F 86% 29.66 in 0.2 mi West 11.5 mph 17.3 mph N/A Snow Snow
11:59 AM 26.1 °F 15.0 °F 16.3 °F 67% 29.66 in 3.0 mi West 12.7 mph 28.8 mph N/A   Haze
12:14 PM 26.6 °F 12.4 °F 14.7 °F 61% 29.67 in 4.0 mi West 21.9 mph 28.8 mph N/A   Haze
12:35 PM 26.6 °F 14.3 °F 13.3 °F 57% 29.67 in 3.0 mi West 16.1 mph 29.9 mph N/A   Haze
12:55 PM 26.6 °F 13.4 °F 13.8 °F 59% 29.67 in 7.0 mi West 18.4 mph 24.2 mph N/A   Overcast
1:14 PM 25.7 °F 12.3 °F 13.1 °F 59% 29.68 in 5.0 mi West 18.4 mph 27.6 mph N/A   Haze
1:35 PM 26.8 °F 13.7 °F 12.0 °F 54% 29.68 in 10.0 mi West 18.4 mph 28.8 mph N/A   Mostly Cloudy
1:54 PM 26.2 °F 13.0 °F 13.3 °F 58% 29.69 in 5.0 mi West 18.4 mph 27.6 mph N/A   Haze
2:15 PM 26.4 °F 13.6 °F 11.8 °F 54% 29.69 in 10.0 mi WSW 17.3 mph 27.6 mph N/A   Overcast
2:34 PM 26.8 °F 13.7 °F 11.1 °F 52% 29.70 in 10.0 mi West 18.4 mph 31.1 mph N/A   Overcast
2:54 PM 26.2 °F 11.9 °F 11.8 °F 55% 29.70 in 10.0 mi West 21.9 mph 29.9 mph N/A   Overcast
3:15 PM 26.4 °F 13.2 °F 11.1 °F 53% 29.71 in 7.0 mi WSW 18.4 mph 28.8 mph N/A   Overcast
3:34 PM 26.2 °F 13.0 °F 10.9 °F 52% 29.72 in 10.0 mi West 18.4 mph 33.4 mph N/A   Overcast
3:55 PM 26.2 °F 15.8 °F 12.7 °F 57% 29.72 in 10.0 mi West 11.5 mph 18.4 mph N/A   Overcast
4:15 PM 25.7 °F 13.1 °F 14.2 °F 62% 29.73 in 7.0 mi West 16.1 mph 23.0 mph N/A Snow Light Snow
4:34 PM 25.5 °F 13.3 °F 12.0 °F 57% 29.73 in 10.0 mi West 15.0 mph 26.5 mph N/A   Overcast
4:55 PM 24.6 °F 12.7 °F 15.6 °F 69% 29.75 in 1.5 mi West 13.8 mph 26.5 mph N/A Snow Light Snow
5:14 PM 24.8 °F 11.9 °F 12.2 °F 59% 29.75 in 10.0 mi West 16.1 mph 21.9 mph N/A   Overcast
5:34 PM 24.8 °F 14.6 °F 12.2 °F 59% 29.75 in 10.0 mi WSW 10.4 mph 25.3 mph N/A   Overcast
5:55 PM 24.1 °F 12.0 °F 14.4 °F 66% 29.77 in 2.5 mi West 13.8 mph 25.3 mph N/A Snow Light Snow
6:14 PM 23.4 °F 10.6 °F 14.7 °F 70% 29.77 in 5.0 mi West 15.0 mph 24.2 mph N/A Snow Light Snow
6:35 PM 23.7 °F 12.1 °F 14.7 °F 69% 29.78 in 10.0 mi West 12.7 mph 18.4 mph N/A   Overcast
6:54 PM 23.5 °F 13.0 °F 13.8 °F 66% 29.79 in 10.0 mi West 10.4 mph 16.1 mph N/A   Overcast
7:15 PM 22.8 °F 11.5 °F 16.9 °F 78% 29.81 in 1.2 mi West 11.5 mph 19.6 mph N/A Snow Light Snow
7:34 PM 22.1 °F 12.0 °F 16.9 °F 80% 29.81 in 7.0 mi West 9.2 mph - N/A Snow Light Snow
7:55 PM 22.5 °F 11.1 °F 14.9 °F 73% 29.82 in 10.0 mi West 11.5 mph 18.4 mph N/A   Overcast
8:14 PM 22.6 °F 10.7 °F 13.1 °F 67% 29.83 in 10.0 mi West 12.7 mph 20.7 mph N/A   Overcast
8:35 PM 22.5 °F 11.1 °F 12.2 °F 65% 29.84 in 10.0 mi West 11.5 mph 17.3 mph N/A   Overcast
8:54 PM 22.1 °F 12.0 °F 11.7 °F 64% 29.84 in 10.0 mi West 9.2 mph 18.4 mph N/A   Overcast
9:14 PM 22.1 °F 11.3 °F 12.4 °F 66% 29.84 in 10.0 mi West 10.4 mph 19.6 mph N/A   Overcast
9:34 PM 22.1 °F 11.3 °F 12.6 °F 67% 29.85 in 10.0 mi West 10.4 mph 17.3 mph N/A   Overcast
9:54 PM 21.7 °F 10.2 °F 11.7 °F 65% 29.86 in 10.0 mi West 11.5 mph - N/A   Overcast
10:15 PM 21.6 °F 8.2 °F 11.8 °F 66% 29.86 in 10.0 mi West 15.0 mph 21.9 mph N/A   Overcast
10:34 PM 21.2 °F 8.3 °F 12.0 °F 68% 29.86 in 10.0 mi West 13.8 mph 19.6 mph N/A   Overcast
10:54 PM 20.8 °F 7.3 °F 11.7 °F 68% 29.87 in 10.0 mi West 15.0 mph - N/A   Overcast
11:14 PM 20.8 °F 9.7 °F 13.1 °F 72% 29.87 in 10.0 mi West 10.4 mph - N/A   Overcast
11:34 PM 20.3 °F 12.5 °F 13.1 °F 74% 29.87 in 10.0 mi West 5.8 mph - N/A   Overcast
11:55 PM 20.3 °F 9.0 °F 12.4 °F 71% 29.87 in 10.0 mi West 10.4 mph 16.1 mph N/A   Overcast